User: anonymous   Login
Location: Unspecified
(0.0000°N, 0.0000°E)
Time: 22:50:45
(UTC+00:00)
Language:

GOMX 1 - Orbit

View from above orbital plane
View from above orbital plane
View from above satellite
View from above satellite

Ground track
Ground track

The orbit data is extracted from the following two-line orbital elements,

1 39423U 13066H   17113.86163674 +.00000422 +00000-0 +93988-4 0  9990
2 39423 097.6802 106.7423 0174460 247.8514 110.4105 14.52827677181349
Epoch (UTC): 23 April 2017 20:40:45
Eccentricity: 0.0174460
inclination: 97.6802°
perigee height: 592 km
apogee height: 840 km
right ascension of ascending node: 106.7423°
argument of perigee: 247.8514°
revolutions per day: 14.52827677
mean anomaly at epoch: 110.4105°
orbit number at epoch: 18134

The dashed part of the orbit path shows where the satellite is in the earth's shadow,  

DLR